Meath Environmental Platform

Observations for Trim Market St

Time AQI Temp °C Hum % Pres Pa CO μg/m³ H₂S μg/m³ NO μg/m³ NO₂ μg/m³ O₃ μg/m³ SO₂ μg/m³ PM1 μg/m³ PM2.5 μg/m³ PM10 μg/m³
Tuesday 11 August 2026
14:30 2 42.9 16 67,386 0 0 0 15.25 74.93 6.22 0 3.93 4.32
14:28 2 42.8 15 67,382 0 0 0 15.53 84.47 5.05 0 3.37 3.71
14:26 2 42.8 16 67,386 0 0 0 15.15 120.94 6.39 0 3.37 3.71
14:25 2 42.8 16 67,386 0 0 0 15.29 84.12 6.71 0 3.93 4.32
14:24 2 42.7 16 67,388 0 0 0 14.81 108.91 7.33 0.71 4.48 4.93
14:22 2 42.6 16 67,365 0 0 0 15.13 95.74 5.68 0.71 3.92 4.32
14:20 2 42.6 16 67,361 0 0 0 15.17 92.2 6.43 0 3.35 3.68
14:19 2 42.5 16 67,333 0 0 0 15.28 100.44 5.91 0.71 3.92 4.32
14:18 2 42.4 16 67,325 0 0 0 15.02 84.78 5.49 0 3.34 3.67
14:14 2 42.1 17 67,298 0 0 0 14.98 81.15 4.58 0 3.88 4.27
14:13 2 42 16 67,286 0 0 0 17.19 68.36 3.43 0 3.33 3.66
14:12 2 41.9 17 67,241 0 0 0 15.12 81.63 4.28 0 3.31 3.65
14:09 2 41.6 16 67,202 0 0 0 15.85 125.7 3.85 0.71 3.9 4.29
14:00 2 40.7 17 67,116 0 0 0 15.61 104.65 4.01 0 3.31 3.64
13:59 2 40.6 17 67,102 0 0 0 15.28 84.22 2.83 0 3.88 4.26
13:58 2 40.4 17 67,084 0 0 0 15.31 79.03 3.02 0 3.31 3.64
13:57 2 40.3 17 67,065 0 0 0 49.82 48.31 1.39 0.71 4.42 4.7
13:56 2 40.1 17 67,037 0 0 0 15.45 150.71 4.38 0.71 4.43 4.87
13:55 2 40 17 67,035 0 0 0.07 15.46 78.29 2.53 0.71 4.43 4.88
13:54 2 39.9 17 67,035 0 0 0.06 14.21 87.04 4.86 0 3.85 4.24